RH
74 65 55 70 81 94 100 100 95 94 99 100 100 100 97 88 84 80 33 18 26 85 57 45 46 62 65 86 78 82 73 81 83 76 75 70 64 60 58 44 68 78 87 91 87 98 72 36 53 34 49 51 74 85
90 88 76 62 58 68 92 99 100 100 99 99 100 100 100 99 92 90 43 28 34 44 62 45 43 40 41 46 80 84 84 71 65 78 81 78 75 81 81 69 55 69 65 69 53 52 37 34 28 32 45 60 73 81
87 82 90 93 73 53 56 86 98 100 100 100 100 100 100 100 100 97 69 42 50 59 65 68 63 54 47 44 47 74 83 80 85 89 89 84 74 74 70 76 70 53 74 54 44 37 34 33 34 35 37 48 56 81
92 88 81 80 90 79 64 54 81 97 100 100 100 100 100 100 100 100 94 61 41 59 82 72 72 65 59 54 50 55 55 64 72 96 87 86 79 74 82 76 76 60 60 57 63 43 38 37 38 38 47 49 56 68
94 91 85 84 87 88 81 72 54 66 91 97 99 100 100 100 100 100 100 91 59 74 97 80 78 73 75 68 62 60 57 81 93 85 94 84 92 83 97 90 93 64 70 58 65 46 38 25 44 49 57 69 80 86
95 94 93 84 78 85 89 83 72 56 56 90 94 95 98 100 100 100 98 98 76 76 97 98 88 91 87 84 70 71 73 91 92 87 90 90 91 87 98 97 77 65 62 47 48 36 41 43 51 54 73 77 83 89
95 95 95 93 91 86 87 88 81 66 54 50 81 89 95 100 100 96 98 93 94 77 99 98 97 97 91 88 93 90 87 93 91 92 99 98 97 93 97 85 76 71 66 53 54 63 61 58 59 72 73 73 78 75
93 94 94 95 94 91 88 93 91 77 63 50 54 81 88 100 100 96 99 96 84 92 100 98 98 94 96 96 96 93 100 98 95 92 98 99 99 97 98 76 68 61 79 76 65 55 69 79 84 84 83 88 90 89
88 91 91 92 94 93 89 86 93 85 65 84 97 91 98 97 95 99 100 99 94 93 97 98 97 96 97 96 95 97 97 96 91 97 96 92 94 97 76 72 68 67 77 74 76 72 86 78 78 82 84 93 88 89
83 82 84 92 94 94 93 89 87 88 76 99 98 84 99 99 99 99 99 99 99 99 99 98 84 97 90 94 94 95 96 96 96 90 96 98 90 73 76 72 65 73 73 83 89 91 88 83 82 82 81 85 89 96
81 78 78 78 78 83 91 94 85 90 93 100 91 98 100 100 99 99 98 97 97 98 98 97 90 95 92 94 91 94 95 96 96 91 94 95 98 87 72 68 66 67 78 71 74 76 73 73 77 79 89 91 86 88
84 83 84 83 81 82 92 93 79 97 93 98 95 98 99 98 98 97 96 95 97 92 98 98 97 95 99 92 94 96 95 96 95 91 96 97 85 73 71 76 81 81 80 76 67 74 73 68 62 71 75 80 79 79
84 81 84 84 81 86 94 95 77 97 99 99 99 98 98 97 97 97 94 96 100 95 96 96 98 91 96 96 96 96 96 94 93 97 94 87 82 80 84 92 93 90 80 76 83 74 69 73 64 63 77 72 76 85
80 81 80 79 82 82 84 91 78 99 98 99 97 96 95 98 96 90 91 89 87 97 95 96 99 96 95 96 96 95 93 94 96 98 92 85 71 68 90 93 91 93 84 75 78 76 77 78 77 68 65 73 82 88
82 83 84 82 78 84 84 83 76 99 100 99 99 95 96 87 95 96 97 95 97 87 88 94 94 93 96 96 96 95 96 96 92 86 84 78 78 89 91 89 82 88 80 69 68 72 76 73 73 75 72 78 84 87
82 83 89 84 80 83 85 88 85 99 100 99 99 98 99 97 98 99 100 98 96 87 97 94 96 96 96 95 96 94 93 91 79 88 84 84 81 86 80 76 71 67 70 68 71 71 69 68 73 73 79 83 82 83
89 92 87 88 80 82 89 100 100 99 98 98 98 99 91 99 93 98 96 93 80 83 97 96 96 90 94 96 98 91 94 84 84 85 88 76 71 68 66 70 65 69 79 79 72 60 62 64 69 84 90 83 82 79
98 93 87 80 80 89 100 100 99 99 97 96 97 94 98 96 96 98 98 84 85 93 96 96 96 96 95 96 93 88 89 87 78 80 80 79 63 57 57 79 84 87 86 83 79 74 74 79 80 80 75 80 82 85
100 98 87 85 89 98 99 99 99 97 97 97 97 99 99 98 97 97 95 78 96 95 96 97 97 95 94 93 92 91 92 87 84 74 63 60 53 59 57 89 92 72 87 87 82 77 78 72 66 69 74 80 84 85
100 99 90 89 94 99 98 97 96 97 96 93 99 100 99 98 98 98 89 90 96 97 97 96 94 92 92 90 90 93 97 93 95 91 90 90 64 84 90 79 63 87 88 82 84 84 82 77 68 70 73 76 83 92
100 99 99 96 100 99 97 96 96 96 100 99 99 98 98 98 98 98 97 94 97 96 97 91 95 81 88 95 88 93 97 96 94 88 92 95 95 95 93 77 90 89 81 82 82 86 80 76 76 72 84 85 82 89
99 100 98 98 96 96 96 96 95 97 95 97 97 96 100 100 98 96 96 96 96 93 95 93 68 71 85 86 87 81 68 82 92 96 94 94 94 94 91 90 88 87 85 84 84 83 85 73 67 68 83 87 93 84
98 99 97 96 95 95 96 95 94 96 96 97 98 97 97 99 97 97 96 96 93 94 92 96 88 74 85 77 80 84 67 64 90 94 81 69 85 89 86 90 83 84 88 89 86 85 79 73 82 71 79 92 92 89
88 96 96 96 95 96 96 98 96 94 96 100 99 96 95 95 95 96 96 96 93 96 97 94 94 90 93 95 100 97 92 89 93 97 91 85 91 88 88 86 87 86 74 84 83 82 80 90 90 86 83 90 93 93
92 96 95 96 96 95 99 99 100 99 98 99 99 99 96 95 95 96 97 93 98 98 91 86 85 89 96 92 92 92 80 78 94 94 96 96 95 96 92 88 89 85 74 82 90 93 95 90 94 83 89 92 91 91
96 96 93 93 99 88 97 100 99 96 94 98 95 95 97 96 98 94 95 100 100 100 95 97 98 96 89 78 90 92 91 89 97 95 96 96 96 92 91 90 92 94 75 58 74 88 93 92 96 90 92 95 94 86
95 98 97 94 90 88 96 88 86 94 97 96 97 98 96 96 94 95 94 95 97 89 98 100 100 95 92 89 90 91 95 100 97 92 90 95 96 96 91 83 81 61 71 78 64 63 79 89 92 92 89 87 92 90
94 97 92 96 99 95 92 96 95 96 93 92 93 97 96 94 95 92 98 93 100 100 100 98 100 100 100 99 100 100 99 98 96 96 96 96 96 96 94 89 82 71 73 75 59 55 57 67 76 78 78 80 83 90
96 95 91 98 97 96 94 94 93 91 92 89 93 96 97 91 96 92 92 100 100 100 97 96 94 97 92 97 98 98 97 96 95 95 95 94 95 95 93 90 80 94 79 70 77 48 45 47 55 63 67 71 77 80
97 97 96 98 97 98 98 96 96 96 95 95 94 95 92 93 98 100 100 100 100 100 100 100 100 100 100 99 95 94 95 96 96 96 95 94 94 89 89 87 90 87 85 78 73 75 88 88 93 86 78 84 87 89
96 97 96 96 96 97 95 96 96 95 96 96 96 96 96 97 98 99 100 100 100 100 98 95 96 100 100 100 99 97 93 94 96 96 96 96 93 96 94 88 82 74 80 71 69 90 98 98 92 85 87 88 90 91
95 97 96 96 97 96 96 96 96 96 96 96 97 96 97 97 100 96 100 100 96 94 98 99 100 99 100 100 99 98 100 96 96 96 96 96 96 91 91 91 75 70 73 74 83 93 94 92 94 89 87 90 92 94
97 96 96 96 98 98 97 96 96 97 98 98 98 97 98 96 99 98 97 100 100 100 100 100 99 98 98 99 98 97 96 96 98 98 99 97 96 96 95 82 76 78 82 86 88 91 95 92 92 93 91 90 93 95
Wind_Speed
8 9 10 12 10 8 9 11 14 22 33 33 31 34 31 29 24 22 12 20 13 3 4 8 8 5 3 2 4 4 3 1 2 2 3 2 3 3 1 3 6 8 8 5 4 3 9 7 4 6 5 2 4 4
10 9 10 11 14 13 10 10 10 9 17 29 37 33 35 32 30 27 12 20 25 4 4 7 13 12 8 7 5 5 3 4 6 3 2 1 3 2 3 4 1 4 7 4 11 8 1 10 6 4 5 4 3 3
11 11 10 11 13 14 15 12 10 10 10 10 22 33 32 35 35 36 18 19 12 1 4 1 6 11 16 15 14 4 3 4 4 4 3 2 6 4 5 7 2 5 5 4 1 9 12 12 9 5 4 4 4 4
12 12 12 11 12 13 14 15 13 11 10 8 9 14 30 35 36 39 32 27 18 6 2 2 2 6 9 15 13 9 2 5 7 1 2 3 3 5 4 1 4 3 8 5 8 17 15 15 9 7 6 4 3 3
14 14 13 12 11 13 14 15 15 14 13 11 10 9 8 29 36 35 31 21 25 7 3 2 5 7 6 11 11 9 13 5 2 1 1 4 2 1 1 1 5 7 8 7 11 9 5 3 7 6 6 5 4 2
16 15 16 14 13 13 14 15 15 15 14 14 13 12 10 8 31 25 3 14 28 13 2 3 1 3 4 5 8 13 10 3 2 3 3 3 2 2 3 5 6 17 12 18 10 4 5 4 6 5 5 4 4 5
17 16 16 16 15 14 15 15 15 15 16 15 15 14 12 9 25 6 3 4 27 18 2 4 4 3 8 8 3 2 1 1 2 3 3 3 2 4 3 10 8 15 19 14 6 6 3 6 5 8 6 6 5 4
19 18 17 17 16 16 15 14 15 16 18 17 16 16 15 15 14 4 7 15 27 8 4 3 3 2 8 3 1 3 1 0 2 3 1 3 0 3 7 4 13 24 5 9 13 15 4 5 8 4 6 4 3 2
21 20 19 18 18 17 15 15 13 14 16 10 5 11 10 3 4 8 21 24 16 4 4 4 4 3 6 3 2 2 2 3 1 3 3 5 4 9 16 14 18 18 12 4 11 11 6 6 7 5 4 4 3 2
24 23 21 20 19 17 16 14 13 10 6 7 7 1 2 1 21 21 5 3 2 4 4 3 3 4 4 3 4 4 2 3 3 5 3 5 6 7 8 20 18 10 15 13 7 4 7 6 8 6 7 4 4 3
27 26 25 24 22 20 18 15 13 9 9 7 1 2 9 20 2 2 3 4 3 3 3 2 4 6 4 4 4 4 3 3 3 4 6 5 5 7 17 25 21 15 15 16 5 4 12 7 10 8 5 7 6 4
29 29 29 28 26 24 20 17 15 13 6 5 11 11 10 2 1 2 4 3 5 6 4 5 4 3 3 2 3 5 4 3 6 4 3 6 5 13 10 10 6 10 13 13 7 9 10 11 17 12 10 9 7 3
35 32 31 30 29 27 23 20 19 16 15 8 2 5 3 3 5 8 10 4 3 4 6 4 3 4 3 3 2 3 5 6 3 3 5 5 6 8 5 4 5 5 11 10 7 14 17 16 17 16 12 10 7 4
37 37 34 33 32 32 30 26 23 26 7 4 5 6 6 6 7 6 5 5 4 3 7 4 3 3 2 3 3 4 3 2 4 5 8 4 10 10 4 3 9 9 12 14 12 13 14 14 13 14 12 12 9 4
39 38 36 37 35 35 34 31 28 27 10 5 5 7 10 5 1 2 2 3 1 6 6 4 3 2 2 3 3 3 3 6 7 7 5 5 6 3 5 6 9 11 12 13 13 12 13 14 14 13 14 12 8 5
39 37 41 39 36 36 36 33 29 23 6 5 7 5 2 2 2 3 2 2 3 6 2 2 3 3 4 4 5 9 4 9 6 4 4 4 4 2 1 5 9 9 11 12 16 14 16 16 15 15 15 12 9 6
39 35 39 36 36 35 36 22 21 7 5 6 6 1 3 1 4 3 4 5 10 6 3 3 8 10 3 3 5 6 6 5 3 4 2 5 6 3 5 6 5 11 13 16 16 17 16 17 18 16 9 12 10 8
37 36 30 31 34 32 29 23 8 6 8 5 3 4 3 3 3 2 3 7 6 5 5 4 3 6 7 6 5 4 5 4 6 5 5 6 2 1 7 8 12 15 14 17 18 19 19 18 14 10 15 15 12 10
38 36 35 34 36 25 5 9 7 4 3 2 1 3 1 1 1 1 3 11 2 2 5 3 5 5 5 4 4 4 4 3 4 2 1 4 1 5 8 11 12 14 16 17 18 16 17 19 16 18 18 16 15 11
39 36 36 37 35 9 5 2 2 3 3 3 2 2 3 3 2 2 5 8 4 3 4 5 6 4 4 4 5 3 3 2 2 3 2 2 5 8 8 12 12 15 15 14 15 17 16 13 15 18 18 16 15 12
35 34 29 33 11 6 2 3 2 2 2 2 1 3 2 1 2 3 4 6 4 4 5 6 3 5 6 3 8 7 4 5 5 5 3 2 5 9 11 13 16 15 13 13 10 12 15 13 19 19 16 15 12 10
11 31 8 8 3 1 3 2 4 2 2 2 2 1 1 2 3 4 4 5 4 4 4 4 8 7 4 7 6 15 13 15 12 8 10 7 4 5 6 13 16 8 14 16 16 16 15 19 21 20 18 15 12 10
22 11 6 4 3 2 2 2 3 3 3 3 1 1 2 2 3 2 3 4 4 3 3 2 5 8 6 11 8 7 11 11 5 5 9 10 10 12 15 18 18 16 9 14 19 19 19 20 19 21 17 15 14 11
16 4 3 3 3 3 2 2 2 2 2 2 4 3 4 3 1 2 4 3 3 2 3 8 6 6 4 3 2 3 9 13 10 9 13 12 6 9 16 18 17 17 19 22 22 20 23 21 19 19 20 18 14 12
5 2 4 3 1 5 3 3 2 1 3 3 2 3 3 2 3 3 4 3 3 3 5 7 6 6 5 6 4 7 13 14 6 6 11 17 12 11 10 12 15 20 23 24 19 20 19 23 22 23 21 18 16 14
3 1 4 4 1 4 5 6 7 7 4 5 6 2 1 3 3 7 3 2 2 2 5 6 6 7 7 6 7 6 11 18 16 6 10 19 19 15 9 9 7 11 27 30 31 26 23 23 23 24 22 17 14 14
4 4 1 1 3 4 2 1 2 3 5 6 4 5 4 5 7 1 1 2 2 8 16 17 15 10 8 13 19 19 21 21 16 13 14 22 23 22 22 17 13 19 36 33 32 33 30 27 24 24 23 20 18 16
2 2 6 4 2 1 4 3 5 6 4 3 6 5 6 4 2 3 2 11 18 20 21 21 19 19 19 22 22 22 15 11 9 8 10 12 15 18 20 19 13 13 30 31 31 30 31 31 31 29 26 23 20 17
1 0 2 3 3 3 5 6 4 1 1 3 4 3 3 2 2 3 7 18 19 14 12 14 17 23 18 16 11 8 6 6 3 4 7 4 3 6 15 17 17 21 28 28 22 24 25 26 26 25 22 20 17 16
1 0 2 2 4 4 1 2 1 1 1 2 3 3 3 3 2 9 12 15 15 13 15 15 14 16 12 13 12 12 8 6 6 4 4 4 5 14 22 23 24 23 26 28 25 20 17 18 18 18 20 19 18 17
2 1 2 2 1 0 0 0 0 0 1 2 3 3 3 3 3 9 19 17 16 15 14 16 17 16 16 15 12 7 7 14 13 7 2 7 10 20 24 22 22 24 27 28 28 25 23 23 24 22 22 20 18 17
2 2 1 2 1 1 1 1 1 1 2 2 2 2 2 2 2 4 19 22 19 17 19 17 15 15 19 16 11 9 10 14 16 12 4 4 11 16 18 20 22 24 27 27 27 27 27 25 24 23 22 20 19 17
1 1 1 2 1 1 1 1 2 2 3 2 2 2 2 2 3 3 15 21 17 17 19 19 14 12 17 17 16 17 20 21 23 15 14 10 4 8 15 18 19 20 22 24 26 26 24 21 21 21 20 19 18 18
Wind_Direction
339 353 354 349 321 309 329 330 297 268 258 264 260 236 232 228 224 214 226 212 195 164 263 199 190 150 115 144 159 180 70 341 55 174 192 221 208 231 268 196 186 177 164 206 189 265 292 140 105 185 216 261 197 201
312 322 331 339 341 337 314 320 347 333 265 260 263 263 234 229 225 217 220 212 208 206 237 220 225 222 216 182 141 186 183 164 183 140 200 143 243 179 180 260 86 245 207 185 197 228 121 196 227 218 171 197 244 183
312 301 312 322 332 339 339 318 319 333 332 291 256 261 263 237 225 220 212 196 177 182 283 273 229 224 225 219 207 138 269 175 182 180 157 163 234 145 200 227 175 232 169 231 18 248 247 249 232 209 181 206 214 211
302 310 303 303 317 324 329 333 329 313 320 328 360 259 252 256 245 225 210 209 191 132 225 233 210 220 220 219 218 225 118 109 100 77 153 185 207 179 231 231 195 188 147 212 257 279 271 258 226 201 183 199 207 223
287 293 300 302 296 307 317 328 331 322 313 305 308 335 345 240 243 216 213 211 196 191 200 272 285 233 210 204 206 193 161 120 124 80 162 226 229 159 197 341 220 189 196 189 259 219 196 215 174 170 174 186 201 206
276 280 286 293 294 289 299 310 322 327 313 307 298 302 317 336 206 188 321 228 204 193 58 265 215 154 121 155 170 165 155 143 154 164 219 245 349 166 236 246 213 205 216 223 245 173 189 171 178 153 170 197 202 190
270 272 274 280 286 293 285 291 303 316 324 308 291 287 300 340 193 149 202 189 190 166 117 295 256 70 138 130 119 132 152 174 145 199 220 202 230 193 248 253 198 223 224 220 187 119 241 191 212 168 175 194 219 208
265 265 267 271 277 282 288 287 291 304 318 313 299 274 278 187 155 107 75 145 154 133 187 233 219 175 177 138 131 191 114 19 223 236 98 177 218 219 257 255 254 255 225 227 201 200 170 114 118 160 181 170 188 228
262 261 258 259 262 268 276 282 284 301 325 324 143 147 137 98 119 139 136 154 171 184 198 215 208 223 169 126 139 172 167 196 235 244 230 165 207 222 222 229 235 236 203 205 198 187 157 179 172 175 181 188 200 254
265 264 263 259 256 257 262 267 268 283 286 193 134 135 68 105 131 126 121 153 225 220 222 234 104 164 151 171 174 137 185 227 231 233 136 230 253 271 244 246 246 240 188 140 127 174 200 216 194 182 205 186 168 173
265 263 262 260 259 257 254 253 252 253 209 221 135 94 126 145 156 172 207 200 214 252 219 196 173 154 204 150 161 208 190 181 232 223 192 249 258 238 224 238 239 220 183 185 154 117 171 166 174 169 179 200 187 202
258 257 256 254 252 248 243 238 236 225 214 212 135 122 160 212 228 183 210 272 190 228 204 165 189 150 171 167 139 176 199 164 254 135 226 261 239 234 239 232 208 188 180 179 151 145 140 139 151 149 143 167 177 167
259 258 254 252 251 247 237 230 226 226 180 154 145 141 157 174 209 205 197 219 214 201 174 163 146 142 146 202 155 160 188 219 106 215 236 258 281 285 235 139 105 108 162 150 118 127 133 133 146 144 151 157 151 128
253 253 253 252 246 243 236 225 219 193 175 191 184 201 206 199 229 195 188 183 213 119 135 109 109 151 142 158 145 194 194 127 246 252 242 253 247 265 164 152 131 159 154 153 148 147 147 147 156 150 151 149 149 144
247 246 247 246 243 238 233 223 216 194 207 205 189 222 214 224 247 250 172 109 170 139 128 110 97 131 164 164 186 109 182 243 217 234 236 245 305 233 172 173 164 157 160 161 153 156 149 152 153 161 163 157 149 141
241 241 240 241 240 234 229 221 213 201 231 214 210 245 197 71 300 185 178 160 193 144 91 79 146 162 208 185 165 214 185 228 244 223 249 305 308 271 185 207 164 156 165 159 155 152 153 155 163 163 151 149 150 146
234 235 235 233 233 229 221 206 192 198 234 211 233 164 148 148 214 201 154 179 164 143 173 169 182 207 107 199 222 193 217 238 244 273 273 279 278 197 158 175 197 156 154 148 146 152 157 160 157 146 147 155 154 146
228 224 224 226 225 219 213 199 186 207 220 227 215 210 182 181 167 214 200 161 155 195 163 215 126 191 205 203 233 230 242 251 249 260 291 303 321 194 174 172 179 170 158 150 154 150 150 153 159 167 159 153 150 150
221 215 218 214 207 199 202 203 177 212 177 172 291 300 240 195 252 185 163 182 161 167 151 188 211 214 223 217 235 239 236 226 266 310 330 336 265 169 164 164 176 169 156 155 154 153 162 168 168 164 164 160 158 152
212 211 216 212 200 173 193 178 116 138 186 200 106 213 199 198 195 172 174 185 168 198 219 222 219 211 195 223 204 214 211 199 185 275 256 166 165 155 161 161 169 155 142 136 137 147 148 151 167 168 170 167 158 160
200 207 205 199 188 182 149 144 117 166 146 175 260 151 221 175 166 176 188 168 191 216 230 224 224 240 220 223 206 203 208 180 207 208 236 197 186 180 170 164 146 151 153 156 152 162 164 174 173 173 167 170 168 169
154 171 122 142 116 200 106 57 111 127 123 202 170 158 164 224 200 190 151 210 228 229 211 206 244 251 233 240 232 219 229 215 213 226 244 218 165 180 176 169 158 168 170 169 166 170 179 182 175 173 172 167 168 163
138 126 110 117 109 67 46 39 107 140 162 204 78 136 237 246 233 113 222 227 248 231 250 257 255 251 248 276 249 234 219 211 220 216 238 196 195 201 189 184 184 170 161 174 174 168 169 174 170 172 167 167 171 166
108 73 104 106 85 104 73 91 86 135 124 170 165 213 194 203 289 214 247 245 247 298 0 350 334 310 315 350 299 261 253 235 243 225 214 185 180 189 194 185 185 194 181 163 166 164 164 163 163 167 175 175 172 179
97 130 120 111 90 117 121 119 135 140 199 180 162 254 215 135 207 240 237 272 346 15 4 350 350 351 321 303 293 265 264 227 228 228 200 188 173 148 165 177 170 178 179 154 155 159 165 162 171 175 177 179 180 184
139 83 134 153 242 150 168 154 194 191 160 174 217 165 139 160 202 238 225 297 300 342 353 335 320 312 297 284 307 314 293 266 237 234 206 189 184 181 173 172 174 184 192 187 168 166 167 171 173 176 179 183 183 183
145 190 211 53 113 112 97 75 100 141 176 199 177 172 170 213 234 235 30 43 335 320 310 298 284 275 277 289 292 290 298 278 229 242 230 204 200 196 192 186 192 200 192 188 181 177 171 174 176 180 185 186 185 192
95 183 169 178 120 144 146 164 179 203 199 172 138 183 199 205 272 338 330 333 324 313 307 309 302 292 283 283 287 294 285 255 213 179 172 181 192 200 200 201 203 210 193 188 187 187 185 183 184 187 188 187 185 190
111 208 113 140 154 186 197 192 217 165 22 172 181 157 132 79 353 324 313 325 328 328 332 334 336 339 335 330 324 333 267 198 203 192 184 181 170 183 192 193 185 185 186 181 182 192 191 191 191 189 188 186 183 183
279 261 123 163 162 209 104 353 81 22 30 49 99 109 103 127 90 15 360 356 355 346 336 338 339 356 348 350 341 345 2 360 351 274 233 220 212 182 177 180 182 177 177 176 171 165 164 163 159 166 173 172 175 178
316 3 78 47 131 174 158 298 257 23 57 58 26 77 108 131 173 26 16 0 349 347 350 356 352 356 357 353 351 340 338 352 352 343 268 215 197 182 179 177 173 173 173 172 168 158 156 163 173 172 173 177 180 187
352 36 203 187 146 154 230 219 154 109 91 77 62 100 129 88 50 359 4 1 360 359 353 349 341 336 358 1 360 352 329 349 2 352 332 170 175 183 181 179 175 172 172 169 165 166 175 172 176 181 183 185 187 191
10 47 84 115 114 227 200 201 149 99 52 70 54 55 50 59 76 4 356 4 356 344 339 333 338 353 11 21 24 33 40 40 33 45 54 62 116 169 176 174 172 171 170 173 177 177 177 180 185 188 190 195 199 203